TimeEST,TemperatureF,Dew PointF,Humidity,Sea Level PressureIn,VisibilityMPH,Wind Direction,Wind SpeedMPH,Gust SpeedMPH,PrecipitationIn,Events,Conditions,WindDirDegrees,DateUTC
12:53 AM,33.1,25.0,72,30.30,10.0,Calm,Calm,-,N/A,,Overcast,0,2013-02-23 05:53:00
1:13 AM,33.8,24.8,70,30.28,10.0,SSE,3.5,-,N/A,,Overcast,150,2013-02-23 06:13:00
1:53 AM,33.1,24.1,70,30.29,10.0,Calm,Calm,-,N/A,,Overcast,0,2013-02-23 06:53:00
2:53 AM,33.1,24.1,70,30.28,10.0,Calm,Calm,-,N/A,,Overcast,0,2013-02-23 07:53:00
3:53 AM,33.1,24.1,70,30.25,10.0,Calm,Calm,-,N/A,,Overcast,0,2013-02-23 08:53:00
4:53 AM,32.0,24.1,73,30.25,10.0,Calm,Calm,-,N/A,,Overcast,0,2013-02-23 09:53:00
5:53 AM,33.1,25.0,72,30.24,10.0,Calm,Calm,-,N/A,,Overcast,0,2013-02-23 10:53:00
6:53 AM,32.0,25.0,75,30.23,10.0,Calm,Calm,-,N/A,,Overcast,0,2013-02-23 11:53:00
7:53 AM,33.1,25.0,72,30.22,10.0,Calm,Calm,-,N/A,,Overcast,0,2013-02-23 12:53:00
8:53 AM,34.0,26.1,73,30.21,10.0,Calm,Calm,-,N/A,,Overcast,0,2013-02-23 13:53:00
9:37 AM,33.8,28.4,81,30.17,6.0,SSE,3.5,-,N/A,,Haze,160,2013-02-23 14:37:00
9:53 AM,34.0,28.0,79,30.19,6.0,SE,3.5,-,N/A,,Haze,140,2013-02-23 14:53:00
10:39 AM,33.8,30.2,87,30.15,2.0,Calm,Calm,-,N/A,,Haze,0,2013-02-23 15:39:00
10:53 AM,34.0,30.0,85,30.16,2.0,Calm,Calm,-,N/A,,Haze,0,2013-02-23 15:53:00
11:27 AM,33.8,30.2,87,30.13,2.0,Calm,Calm,-,N/A,,Haze,0,2013-02-23 16:27:00
11:53 AM,34.0,32.0,92,30.14,2.0,Calm,Calm,-,N/A,,Haze,0,2013-02-23 16:53:00
12:00 PM,33.8,32.0,93,30.11,1.2,Calm,Calm,-,N/A,,Haze,0,2013-02-23 17:00:00
12:12 PM,33.8,32.0,93,30.10,1.2,North,3.5,-,N/A,,Haze,360,2013-02-23 17:12:00
12:53 PM,34.0,32.0,92,30.11,1.2,Calm,Calm,-,N/A,,Haze,0,2013-02-23 17:53:00
1:53 PM,36.0,33.1,89,30.10,1.8,Calm,Calm,-,0.01,,Drizzle,0,2013-02-23 18:53:00
1:59 PM,35.6,33.8,93,30.08,2.0,Calm,Calm,-,0.00,,Drizzle,0,2013-02-23 18:59:00
2:17 PM,35.6,33.8,93,30.07,1.8,ENE,3.5,-,0.00,,Drizzle,70,2013-02-23 19:17:00
2:39 PM,35.6,33.8,93,30.06,2.5,ENE,4.6,-,0.00,,Drizzle,60,2013-02-23 19:39:00
2:53 PM,36.0,34.0,93,30.08,2.5,East,3.5,-,0.01,,Drizzle,80,2013-02-23 19:53:00
3:50 PM,35.6,33.8,93,30.05,4.0,Calm,Calm,-,0.02,,Drizzle,0,2013-02-23 20:50:00
3:53 PM,36.0,34.0,93,30.07,4.0,SE,3.5,-,0.02,,Drizzle,140,2013-02-23 20:53:00
4:53 PM,36.0,33.1,89,30.05,3.0,ENE,3.5,-,0.00,Rain,Light Rain,70,2013-02-23 21:53:00
5:53 PM,35.1,33.1,92,30.04,3.0,Calm,Calm,-,0.01,Rain,Light Rain,0,2013-02-23 22:53:00
6:53 PM,34.0,32.0,92,30.03,3.0,North,5.8,-,0.01,Rain,Light Rain,360,2013-02-23 23:53:00
7:53 PM,34.0,32.0,92,30.00,4.0,NNE,3.5,-,0.00,Rain,Light Rain,30,2013-02-24 00:53:00
8:53 PM,34.0,32.0,92,29.99,3.0,North,5.8,-,0.00,,Overcast,10,2013-02-24 01:53:00
9:07 PM,33.8,32.0,93,29.96,3.0,North,6.9,-,N/A,,Overcast,350,2013-02-24 02:07:00
9:18 PM,33.8,32.0,93,29.96,3.0,North,8.1,-,0.00,,Overcast,360,2013-02-24 02:18:00
9:30 PM,33.8,32.0,93,29.95,3.0,North,9.2,-,0.00,,Overcast,360,2013-02-24 02:30:00
9:53 PM,34.0,32.0,92,29.96,3.0,North,8.1,-,0.00,Rain,Light Rain,360,2013-02-24 02:53:00
10:00 PM,33.8,32.0,93,29.93,2.5,North,9.2,-,0.00,Rain,Light Rain,10,2013-02-24 03:00:00
10:08 PM,33.8,32.0,93,29.93,3.0,NNE,5.8,-,0.00,,Overcast,20,2013-02-24 03:08:00
10:18 PM,33.8,32.0,93,29.92,2.5,NNE,8.1,-,0.00,,Overcast,20,2013-02-24 03:18:00
10:49 PM,33.8,32.0,93,29.91,3.0,North,5.8,-,0.01,,Overcast,10,2013-02-24 03:49:00
10:53 PM,34.0,32.0,92,29.93,3.0,North,6.9,-,0.01,,Overcast,10,2013-02-24 03:53:00
11:53 PM,34.0,32.0,92,29.91,6.0,North,9.2,-,0.00,,Overcast,360,2013-02-24 04:53:00